Stündliche Wetter Abano Terme

Heute, 2 August, Montag

Zeit Temperatur Niederschläge Wind Luftdruck Luftfeuchtigkeit
00:00 +19°C° 0 mm 2 m/S 755 mmHg 78%
01:00 +20°C° 0 mm 1 m/S 755 mmHg 81%
02:00 +19°C° 0 mm 1 m/S 755 mmHg 81%
03:00 +19°C° 0 mm 1 m/S 756 mmHg 81%
04:00 +19°C° 0 mm 1 m/S 756 mmHg 81%
05:00 +20°C° 0 mm 1 m/S 756 mmHg 76%
06:00 +21°C° 0 mm 1 m/S 757 mmHg 71%
07:00 +22°C° 0 mm 1 m/S 757 mmHg 66%
08:00 +23°C° 0 mm 1 m/S 758 mmHg 61%
09:00 +25°C° 0 mm 1 m/S 758 mmHg 56%
10:00 +27°C° 0 mm 1 m/S 758 mmHg 51%
11:00 +27°C° 0 mm 2 m/S 758 mmHg 49%
12:00 +28°C° 0 mm 2 m/S 758 mmHg 48%
13:00 +28°C° 0 mm 3 m/S 758 mmHg 46%
14:00 +28°C° 0.1 mm 3 m/S 757 mmHg 48%
15:00 +28°C° 0.1 mm 2 m/S 757 mmHg 50%
16:00 +28°C° 0.1 mm 2 m/S 757 mmHg 52%
17:00 +26°C° 0.2 mm 2 m/S 757 mmHg 60%
18:00 +25°C° 0.2 mm 2 m/S 757 mmHg 67%
19:00 +24°C° 0.2 mm 2 m/S 757 mmHg 74%
20:00 +23°C° 0.2 mm 2 m/S 758 mmHg 79%
21:00 +21°C° 0.2 mm 2 m/S 758 mmHg 83%
22:00 +19°C° 0.2 mm 2 m/S 759 mmHg 87%
23:00 +19°C° 0.1 mm 2 m/S 759 mmHg 88%

Morgen, 3 August, Dienstag

Zeit Temperatur Niederschläge Wind Luftdruck Luftfeuchtigkeit
00:00 +19°C° 0.1 mm 2 m/S 759 mmHg 90%
01:00 +18°C° 0.1 mm 2 m/S 759 mmHg 91%
02:00 +18°C° 0.2 mm 2 m/S 759 mmHg 91%
03:00 +18°C° 0.2 mm 1 m/S 759 mmHg 91%
04:00 +18°C° 0.2 mm 1 m/S 759 mmHg 91%
05:00 +19°C° 0.3 mm 1 m/S 760 mmHg 89%
06:00 +20°C° 0.3 mm 1 m/S 760 mmHg 87%
07:00 +20°C° 0.3 mm 1 m/S 760 mmHg 85%
08:00 +22°C° 0.1 mm 1 m/S 760 mmHg 77%
09:00 +24°C° 0.1 mm 1 m/S 760 mmHg 69%
10:00 +26°C° 0.1 mm 1 m/S 760 mmHg 61%
11:00 +27°C° 0.1 mm 1 m/S 759 mmHg 55%
12:00 +29°C° 0.1 mm 1 m/S 759 mmHg 49%
13:00 +30°C° 0.1 mm 2 m/S 758 mmHg 44%
14:00 +30°C° 0 mm 2 m/S 758 mmHg 42%
15:00 +30°C° 0 mm 2 m/S 757 mmHg 41%
16:00 +30°C° 0 mm 2 m/S 757 mmHg 39%
17:00 +29°C° 0 mm 3 m/S 757 mmHg 47%
18:00 +27°C° 0 mm 3 m/S 757 mmHg 54%
19:00 +26°C° 0 mm 3 m/S 757 mmHg 61%
20:00 +25°C° 0.2 mm 3 m/S 757 mmHg 67%
21:00 +23°C° 0.2 mm 2 m/S 758 mmHg 72%
22:00 +21°C° 0.2 mm 2 m/S 758 mmHg 78%
23:00 +20°C° 0 mm 2 m/S 758 mmHg 81%

übermorgen, 4 August, Mittwoch

Zeit Temperatur Niederschläge Wind Luftdruck Luftfeuchtigkeit
00:00 +20°C° 0 mm 2 m/S 758 mmHg 84%
01:00 +19°C° 0 mm 2 m/S 758 mmHg 87%
02:00 +19°C° 0 mm 2 m/S 758 mmHg 86%
03:00 +19°C° 0 mm 2 m/S 758 mmHg 85%
04:00 +19°C° 0 mm 2 m/S 758 mmHg 84%
05:00 +20°C° 0 mm 2 m/S 758 mmHg 81%
06:00 +21°C° 0 mm 2 m/S 758 mmHg 78%
07:00 +21°C° 0 mm 2 m/S 758 mmHg 75%
08:00 +24°C° 0 mm 2 m/S 758 mmHg 69%
09:00 +25°C° 0 mm 2 m/S 758 mmHg 63%
10:00 +27°C° 0 mm 2 m/S 758 mmHg 57%
11:00 +28°C° 0 mm 2 m/S 758 mmHg 53%
12:00 +29°C° 0 mm 2 m/S 757 mmHg 49%
13:00 +31°C° 0 mm 2 m/S 757 mmHg 45%
14:00 +31°C° 0.1 mm 2 m/S 756 mmHg 45%
15:00 +31°C° 0.1 mm 3 m/S 756 mmHg 45%
16:00 +31°C° 0.1 mm 3 m/S 756 mmHg 45%
17:00 +29°C° 0.1 mm 3 m/S 755 mmHg 52%
18:00 +27°C° 0.1 mm 3 m/S 755 mmHg 59%
19:00 +26°C° 0.1 mm 3 m/S 755 mmHg 66%
20:00 +25°C° 0.3 mm 3 m/S 755 mmHg 72%
21:00 +24°C° 0.3 mm 3 m/S 755 mmHg 77%
22:00 +22°C° 0.3 mm 3 m/S 755 mmHg 83%
23:00 +21°C° 0.7 mm 2 m/S 755 mmHg 86%

5 August, Donnerstag

Zeit Temperatur Niederschläge Wind Luftdruck Luftfeuchtigkeit
00:00 +21°C° 0.7 mm 2 m/S 755 mmHg 90%
01:00 +21°C° 0.7 mm 1 m/S 755 mmHg 93%
02:00 +20°C° 0.1 mm 2 m/S 755 mmHg 94%
03:00 +19°C° 0.1 mm 2 m/S 755 mmHg 94%
04:00 +19°C° 0.1 mm 2 m/S 754 mmHg 95%
05:00 +19°C° 0 mm 2 m/S 754 mmHg 93%
06:00 +19°C° 0 mm 2 m/S 755 mmHg 91%
07:00 +19°C° 0 mm 2 m/S 755 mmHg 88%
08:00 +21°C° 0 mm 2 m/S 755 mmHg 80%
09:00 +24°C° 0 mm 2 m/S 755 mmHg 71%
10:00 +26°C° 0 mm 2 m/S 755 mmHg 63%
11:00 +27°C° 0 mm 2 m/S 755 mmHg 57%
12:00 +28°C° 0 mm 1 m/S 755 mmHg 51%
13:00 +29°C° 0 mm 1 m/S 754 mmHg 45%
14:00 +30°C° 0 mm 1 m/S 754 mmHg 43%
15:00 +30°C° 0 mm 1 m/S 754 mmHg 40%
16:00 +30°C° 0 mm 1 m/S 754 mmHg 38%
17:00 +29°C° 0 mm 2 m/S 754 mmHg 46%
18:00 +27°C° 0 mm 2 m/S 754 mmHg 53%
19:00 +26°C° 0 mm 2 m/S 754 mmHg 60%
20:00 +25°C° 0.1 mm 2 m/S 754 mmHg 67%
21:00 +23°C° 0.1 mm 2 m/S 754 mmHg 73%
22:00 +21°C° 0.1 mm 2 m/S 755 mmHg 80%
23:00 +20°C° 0 mm 2 m/S 755 mmHg 82%

6 August, Freitag

Zeit Temperatur Niederschläge Wind Luftdruck Luftfeuchtigkeit
00:00 +20°C° 0 mm 2 m/S 755 mmHg 85%
01:00 +19°C° 0 mm 2 m/S 755 mmHg 88%
02:00 +19°C° 0 mm 2 m/S 755 mmHg 88%
03:00 +19°C° 0 mm 2 m/S 755 mmHg 88%
04:00 +19°C° 0 mm 1 m/S 755 mmHg 88%
05:00 +20°C° 0 mm 1 m/S 755 mmHg 85%
06:00 +21°C° 0 mm 1 m/S 755 mmHg 81%
07:00 +22°C° 0 mm 1 m/S 755 mmHg 77%
08:00 +24°C° 0 mm 1 m/S 756 mmHg 70%
09:00 +25°C° 0 mm 1 m/S 756 mmHg 63%
10:00 +27°C° 0 mm 1 m/S 756 mmHg 56%
11:00 +29°C° 0 mm 1 m/S 755 mmHg 52%
12:00 +30°C° 0 mm 1 m/S 755 mmHg 48%
13:00 +31°C° 0 mm 1 m/S 755 mmHg 44%
14:00 +31°C° 0 mm 1 m/S 755 mmHg 43%
15:00 +32°C° 0 mm 2 m/S 754 mmHg 42%
16:00 +32°C° 0 mm 2 m/S 754 mmHg 40%
17:00 +30°C° 0 mm 3 m/S 754 mmHg 47%
18:00 +29°C° 0 mm 3 m/S 754 mmHg 53%
19:00 +27°C° 0 mm 3 m/S 755 mmHg 60%
20:00 +26°C° 0 mm 2 m/S 755 mmHg 64%
21:00 +24°C° 0 mm 2 m/S 755 mmHg 69%
22:00 +23°C° 0 mm 2 m/S 756 mmHg 73%
23:00 +23°C° 0 mm 2 m/S 756 mmHg 76%

7 August, Samstag

Zeit Temperatur Niederschläge Wind Luftdruck Luftfeuchtigkeit
00:00 +21°C° 0 mm 2 m/S 756 mmHg 78%
01:00 +21°C° 0 mm 2 m/S 756 mmHg 80%
02:00 +21°C° 0 mm 2 m/S 756 mmHg 80%
03:00 +21°C° 0 mm 2 m/S 756 mmHg 80%
04:00 +21°C° 0 mm 2 m/S 756 mmHg 81%
05:00 +21°C° 0 mm 2 m/S 756 mmHg 77%
06:00 +23°C° 0 mm 2 m/S 756 mmHg 74%
07:00 +24°C° 0 mm 2 m/S 757 mmHg 70%
08:00 +26°C° 0 mm 2 m/S 757 mmHg 65%
09:00 +28°C° 0 mm 2 m/S 757 mmHg 59%
10:00 +29°C° 0 mm 2 m/S 757 mmHg 53%
11:00 +30°C° 0 mm 2 m/S 756 mmHg 51%
12:00 +31°C° 0 mm 2 m/S 756 mmHg 48%
13:00 +33°C° 0 mm 3 m/S 755 mmHg 45%
14:00 +33°C° 0 mm 3 m/S 755 mmHg 45%
15:00 +33°C° 0 mm 3 m/S 755 mmHg 45%
16:00 +33°C° 0 mm 3 m/S 754 mmHg 45%
17:00 +31°C° 0 mm 3 m/S 754 mmHg 51%
18:00 +29°C° 0 mm 3 m/S 754 mmHg 57%
19:00 +28°C° 0 mm 3 m/S 754 mmHg 63%
20:00 +27°C° 0 mm 3 m/S 755 mmHg 69%
21:00 +25°C° 0 mm 3 m/S 755 mmHg 75%
22:00 +24°C° 0 mm 3 m/S 755 mmHg 80%
23:00 +24°C° 0 mm 3 m/S 755 mmHg 83%
Mehr zeigen

Wir brauchen deine Erlaubnis

Meteoprog und unser Service Anbieter werden persönliche Daten aufbewahren, so wie Cookies, Geräte Bezeichnung oder ähnliche Technologien von deinem Gerät und Prozess, so wie Persönliche Daten Inhalte und Werbungen, genauso wie social Media und den Verkehr zu analysieren.

  • Aufbewahrung und/oder Zugang zu deiner Geräte Informationen.

    Cookies, Geräte Bezeichnung oder andere Informationen, können aufbewahrt oder Zugang zu deinem Gerät erhalten, für den Grund, der oben angegeben wird.

  • Personalisierte Werbung und Inhalte, Messungen, Einblick in das Publikum und Produkt Entwicklung.

    Werbungen und Inhalte können personalisiert werden, basierend auf ein Profil. Mehr Daten können besser personalisierte Werbungen und Inhalte hinzufügen. Werbung und Inhalte können gezeigt und gemessen werden. Einblicke über das Publikum, welche die Werbung gesehen haben und den Inhalt, können abgeleitet werden. So wie Daten können genutzt werden, um es zu verbessern oder die Benutzer Erfahrung zu verbessern das System und die Software.

Wenn du “Ich stimme zu” klickst, erlaubst du uns, die Cookies zu benutzen die Geräte Bezeichnung, den Web oder ähnliche Technologien zu benutzen. Deine Settings, können in deinem Gerät bei deinem Browser geändert werden.

Für den bestimmten Zweck, berechtigten Interessen beruhen darauf, mehr als auf den Inhalt. Du kannst mehr darüber in unseren Privaten und Cookie Politik lesen.